Showing default

GALAXY 33, 54026

Orbit data source: Space-Track

GALAXY 33, 54026 is a payload satellite owned by Intelsat SA (US) (US) in GEO that was launched on Sat, 08 Oct 2022 UTC via an FALCON 9 launch vehicle from the Air Force Eastern Test Range (AFETR). Payload-class satellites include a variety of spacecraft equipped with specific instruments for various scientific and technological missions. These include communications satellites like Starlink; space stations such as the ISS; scientific satellites like the Hubble; Earth observation satellites from companies like Planet Labs, Umbra, and HawkEye 360; GPS; miniature CubeSats for education and research; and military/defense satellites.

Loading next visibility...
Identifier
54026, 2022-128A
Orbit
GEO
Country
Flag of USUS
Related business
Manufacturer
NGIS SSG
Mission
Operational Commercial Communications
Bus & Motor
GEOSTAR-2.4E, BT-4?
Mass
3,700 kg wet, ~2,500 kg dry
Launch date (UTC)
2022-10-08 (4 years ago)
Launch vehicle
FALCON 9
Launch site
Air Force Eastern Test Range (AFETR)
Object type
Payload
Rocket body
Debris
Shape & HBR
Box + 2 Pan, 11.5 m
Radar Cross Section
29.373 m², Large (>1 m²)

Expand to show TLE details & history
Last TLE update: 2 days ago

TLE from 2 days ago
0 GALAXY 33
1 54026U 22128A   26171.39489199  .00000075  00000-0  00000+0 0  9992
2 54026   0.0225  55.3005 0001741  30.1498 192.3075  1.00270656 13776
Epoch: 2026-06-20T09:28Z
TLE epoch observation values (Epoch: 2026-06-20T09:28:38.667Z)
Latitude
-0.02992°
Longitude
-133.00541°
Altitude
35,793.608 km
Speed
3.074 km/s
True Right ascension
18h 31m 03s
True Declination
0° 01' 48"
Sunlit
Object was in daylight at epoch
Visualization orbit readout
Latitude
Unknown
Longitude
Unknown
Altitude
Unknown
Speed
Unknown
Apparent Right ascension
Unknown
Apparent Declination
Unknown
Sunlit
N/A
Visualization observer readout
Local Sidereal Time
21:41:15
Azimuth
Unknown
Elevation
Unknown
Doppler factor
Unknown
Orbital elements
Apogee altitude
35,795.323 km
Perigee altitude
35,780.641 km
Semi-major axis
42,166.119 km
Eccentricity
0.00017
Inclination
0.0225°
RAAN
55.3005°
Arg. of periapsis
30.1498°
True anomaly
192.30325°
Mean anomaly
192.3075°
Eccentric anomaly
192.30537°
Mean motion
0.25067 °/min
Orbital period
1,436.17 mins
BSTAR
0
Loading maneuver chart data...
Computing Atmospheric mass density...
Loading historical data...
Loading historical data...
Loading historical data...
Loading historical data...
Loading historical data...
Loading historical data...
Loading historical data...
Other satellites on launch #128 in the year 2022 (2022-10-08 UTC)

Documentation

Showing up to 5 results
|